Home   Weather   Charlottetown   Past weeks

Flag for Canada Past Weather in Charlottetown, Prince Edward Island, Canada — Yesterday and Last 2 Weeks

43 °F

Sprinkles. Partly sunny.

Feels Like: 36 °F
Forecast: N/A
Wind: 14 mph from West

Location: Charlottetown

Current Time: Oct 24, 2016 at 6:55:42 PM

Latest Report: Oct 24, 2016 at 6:00 PM

Visibility: 8 mi

Pressure: 29.59 "Hg

Humidity: 76%

Dew Point: 36 °F

Location of CharlottetownLocation

Past Weather in Charlottetown — Graph


Charlottetown Temperature Yesterday

Maximum temperature yesterday: 64 °F (at 12:00 AM)
Minimum temperature yesterday: 43 °F (at 11:00 PM)
Average temperature yesterday: 53 °F

High & Low Weather Summary for the Past Weeks

High68 °F (Oct 19, 4:00 PM)100% (Oct 14, 1:00 AM)30.41 "Hg (Oct 14, 1:00 AM)
Low32 °F (Oct 15, 11:00 PM)44% (Oct 16, 4:00 PM)29.07 "Hg (Oct 22, 8:00 PM)
Average51 °F78%29.96 "Hg
* Reported Oct 9 5:00 PM — Oct 24 5:00 PM, Charlottetown, Weather by CustomWeather, © 2016

Note: Actual official high and low records may vary slightly from our data, if they occured in-between our weather recording intervals... More about our weather records


Charlottetown Weather History for the Previous 24 Hours

Scroll right to see more
Time TempWeatherWind HumidityBarometerVisibility
5:00 PM
Mon, Oct 24
43 °FSprinkles. Partly sunny.10 mph81%29.57 "Hg8 mi
4:00 PM50 °FPartly sunny.12 mph50%29.53 "Hg15 mi
3:00 PM52 °FScattered clouds.16 mph47%29.53 "Hg15 mi
2:00 PM52 °FScattered clouds.16 mph50%29.54 "Hg15 mi
1:00 PM48 °FPartly sunny.16 mph54%29.54 "Hg15 mi
12:00 PM48 °FPartly sunny.14 mph54%29.55 "Hg15 mi
11:00 AM46 °FPartly sunny.24 mph53%29.56 "Hg15 mi
10:00 AM45 °FPartly sunny.18 mph57%29.55 "Hg15 mi
9:00 AM45 °FPartly sunny.22 mph53%29.54 "Hg15 mi
8:00 AM45 °FPartly sunny.17 mph57%29.51 "Hg15 mi
7:00 AM43 °FPassing clouds.20 mph61%29.48 "Hg15 mi
6:00 AM43 °FPassing clouds.17 mph61%29.46 "Hg15 mi
5:00 AM41 °FPassing clouds.20 mph66%29.45 "Hg15 mi
4:00 AM43 °FPassing clouds.18 mph61%29.43 "Hg15 mi
3:00 AM43 °FPassing clouds.17 mph61%29.41 "Hg15 mi
2:00 AM43 °FPassing clouds.20 mph61%29.40 "Hg15 mi
1:00 AM43 °FPassing clouds.17 mph66%29.39 "Hg15 mi
12:00 AM43 °FPassing clouds.15 mph66%29.39 "Hg15 mi
11:00 PM
Sun, Oct 23
43 °FPartly cloudy.17 mph71%29.39 "Hg15 mi
10:00 PM45 °FPassing clouds.13 mph66%29.39 "Hg15 mi
9:00 PM45 °FPartly cloudy.14 mph66%29.39 "Hg15 mi
8:00 PM45 °FSprinkles. Partly cloudy.15 mph76%29.39 "Hg15 mi
7:00 PM46 °FPartly cloudy.23 mph71%29.36 "Hg15 mi
6:00 PM48 °FPartly sunny.21 mph66%29.33 "Hg15 mi
Weather by CustomWeather, © 2016

See weather overviewHow to use our weather pages